Theta_e
308 309 309 309 309 309 309 309 310 311 312 313 314 314 314 314 314 314 311 313 313 312 313 313 314 314 314 313 311 306 307 308 311 311 313 312 313 311 309 311 309 310 311 310 313
308 309 309 309 309 310 310 310 311 313 315 315 316 316 315 315 314 314 314 315 313 313 313 313 312 313 310 314 312 307 305 307 309 311 314 313 312 312 312 309 311 310 309 309 310
308 309 309 310 310 310 310 312 314 316 316 317 317 317 316 313 313 311 314 314 313 312 313 314 314 313 313 313 314 311 309 309 313 312 312 313 312 310 312 312 310 311 308 303 303
309 310 311 311 311 312 313 315 315 316 319 319 319 318 316 313 316 312 312 311 312 312 314 314 311 313 312 313 312 315 313 312 313 313 312 313 311 312 310 311 307 306 303 303 301
312 313 313 314 313 314 315 317 319 320 320 321 320 318 314 312 313 315 312 311 310 312 314 311 312 311 312 312 311 315 314 311 311 310 309 309 310 311 309 306 302 303 302 300 300
313 314 315 314 314 314 316 318 320 321 321 321 319 315 312 312 314 316 315 312 311 311 312 311 310 310 311 311 311 310 310 309 309 310 310 311 310 310 306 302 303 303 300 299 298
315 315 315 315 314 315 317 319 321 321 321 321 317 312 313 311 313 315 314 312 311 312 311 312 311 311 310 312 310 310 310 308 308 309 309 307 311 309 308 301 302 301 299 298 297
316 316 316 316 315 316 317 320 321 321 321 319 311 313 312 312 312 315 314 313 313 313 312 312 312 310 311 310 307 310 309 310 310 310 310 310 313 311 303 303 302 299 297 297 296
317 317 317 316 315 316 318 320 322 321 319 315 315 312 313 309 312 313 313 312 312 311 311 311 310 308 309 308 308 306 311 309 309 310 310 310 311 310 302 302 300 297 296 296 295
318 317 317 316 316 317 319 321 321 317 314 314 315 313 312 309 309 310 311 311 310 308 309 308 304 307 305 306 312 310 309 308 309 310 310 310 310 308 301 301 298 296 295 295 294
318 317 317 316 316 318 320 321 317 316 317 315 314 314 310 308 309 308 310 310 308 307 307 308 306 308 308 306 308 308 309 310 308 309 311 309 309 306 302 299 298 297 296 295 294
318 318 317 316 317 318 320 318 318 316 319 316 315 310 311 309 310 308 309 310 309 309 307 308 307 306 306 306 307 308 310 309 309 309 309 309 309 304 301 299 298 297 296 295 294
318 318 317 317 317 319 320 320 318 316 318 317 315 315 315 310 314 311 307 307 309 309 308 310 311 308 308 308 308 308 308 310 311 309 307 307 308 306 300 299 298 296 295 295 294
319 318 317 317 319 319 320 322 321 315 318 317 317 315 312 312 316 310 308 308 308 310 308 308 309 311 309 309 309 311 309 310 312 310 312 307 312 308 303 300 298 296 295 294 293
320 319 318 317 320 319 320 321 319 314 325 316 314 308 309 317 310 308 306 309 310 310 310 315 311 310 311 311 310 313 308 309 309 308 308 309 309 306 302 302 299 296 295 293 292
322 320 318 318 319 320 320 317 315 321 326 317 307 308 311 308 307 306 307 306 308 310 309 312 307 309 310 308 309 306 308 307 305 306 311 310 311 310 306 305 300 297 295 294 292
322 321 319 318 320 320 315 316 323 325 317 314 310 307 310 307 307 308 308 308 312 313 312 310 309 308 308 308 307 309 311 315 313 311 315 307 308 309 306 303 301 298 295 293 292
322 321 320 319 320 320 313 322 325 323 321 309 308 306 309 306 306 307 307 310 307 309 309 313 316 309 307 309 309 309 311 314 313 311 311 310 314 314 302 298 298 297 295 293 291
322 319 320 319 321 320 318 327 324 322 319 310 310 308 307 307 306 308 307 309 310 306 314 313 317 307 308 307 308 309 311 308 309 296 308 311 309 305 300 298 296 295 293 292 291
320 318 319 320 320 318 322 323 322 320 317 311 316 310 309 312 308 306 307 307 309 306 310 313 316 310 306 306 305 308 307 313 308 308 308 308 310 308 303 300 296 295 294 293 291
316 317 316 320 319 321 325 322 322 319 316 315 318 314 310 314 309 307 308 309 309 308 310 310 314 312 309 309 308 308 310 307 308 305 305 303 305 304 305 300 298 296 295 294 292
313 319 313 318 321 320 324 322 320 321 314 316 315 316 314 314 312 308 310 311 307 309 313 311 311 310 311 307 305 306 308 308 312 309 305 306 309 301 302 300 298 297 296 293 292
315 312 309 314 321 321 317 319 318 315 317 317 317 316 315 315 318 314 313 309 306 311 313 311 311 306 308 308 306 308 306 306 306 304 305 307 308 301 300 299 297 296 295 294 293
309 314 309 310 311 316 316 317 318 313 316 316 317 313 315 317 317 316 311 309 308 309 310 311 309 309 315 309 308 309 308 306 305 305 305 310 308 305 303 301 298 296 295 294 293
306 312 309 311 311 312 312 311 315 315 312 313 314 315 316 316 317 317 310 309 307 308 306 310 311 305 303 304 304 305 307 307 307 309 310 309 308 304 303 302 299 295 294 293 293
305 307 304 308 313 312 312 307 310 310 309 308 312 312 314 312 313 311 310 309 311 305 307 302 305 302 300 302 303 304 304 305 307 304 304 303 304 299 299 298 298 296 294 293 293
297 298 302 307 310 313 313 310 310 311 310 310 309 311 312 313 307 303 305 305 307 307 307 305 303 302 308 297 301 309 305 304 304 302 304 306 305 292 295 295 295 294 292 291 292
Wind_Speed
5 4 5 5 5 6 7 7 7 8 10 11 12 13 15 16 16 12 3 1 1 3 2 3 3 5 4 4 4 3 4 1 3 5 2 2 5 1 3 1 5 2 2 5 10
7 7 7 8 8 7 8 8 9 9 11 12 13 14 15 17 16 6 2 2 2 3 3 3 2 4 4 3 3 5 3 6 3 3 2 3 1 3 4 4 2 3 4 14 10
9 9 9 9 9 9 9 9 9 10 12 13 14 15 13 13 5 2 1 4 4 5 4 6 6 3 3 2 2 2 4 3 2 3 1 3 3 2 1 6 3 1 8 12 17
11 10 10 10 10 9 9 9 9 11 13 14 14 13 10 6 4 1 1 2 5 7 7 5 4 3 2 0 1 0 4 4 3 1 1 3 3 4 5 2 2 4 7 7 11
12 12 11 10 9 9 9 10 10 11 13 14 13 11 4 3 7 2 1 2 5 8 4 3 3 4 3 3 2 3 3 3 4 5 5 3 5 4 8 4 9 11 13 10 11
14 13 13 12 10 9 9 10 11 11 13 14 11 7 1 3 3 2 2 3 4 7 5 5 5 5 3 2 3 1 3 6 6 4 3 4 1 1 5 7 10 11 10 10 14
15 14 14 13 11 10 10 11 12 13 14 13 10 3 1 11 4 3 3 3 4 5 4 4 5 3 4 0 1 1 5 7 5 2 5 6 2 6 3 9 9 8 8 8 11
18 16 14 13 12 11 11 11 12 14 14 10 5 1 6 4 5 7 5 4 6 4 3 4 5 4 2 2 6 3 3 4 3 1 2 4 7 0 8 8 8 8 8 8 11
19 17 15 14 13 12 12 12 13 13 8 4 1 1 7 2 4 8 8 6 7 5 5 6 4 3 4 5 4 5 3 5 8 2 1 2 5 1 12 9 8 7 7 7 9
19 18 17 14 13 11 12 11 10 8 3 3 0 2 3 4 4 7 7 12 4 5 4 5 5 3 3 4 5 6 4 4 5 1 3 1 7 4 9 10 7 7 7 7 8
21 19 17 14 12 10 9 5 2 3 4 9 5 3 3 4 6 5 6 7 4 4 5 1 4 8 13 10 2 4 4 5 3 3 0 7 7 4 5 7 7 6 6 6 7
24 21 18 15 12 9 7 3 4 1 6 13 6 6 4 7 3 4 11 6 5 5 5 3 7 9 4 5 5 2 2 5 5 2 6 4 6 3 5 3 4 5 6 6 5
26 23 19 15 11 11 11 11 4 2 4 7 7 6 5 10 7 9 12 5 5 6 8 8 5 6 7 5 6 5 6 4 7 3 1 4 6 4 3 5 5 5 4 4 5
28 25 21 14 8 14 8 14 13 3 4 6 6 6 5 8 5 3 13 6 4 11 7 6 4 6 5 6 8 5 8 5 4 4 4 1 5 3 5 4 4 5 5 5 4
31 28 25 26 4 9 6 16 14 3 6 2 3 4 3 6 6 1 2 3 8 7 7 7 6 6 6 6 8 6 5 5 2 3 1 2 0 5 5 5 6 6 5 5 6
36 33 28 26 22 7 10 19 8 3 12 3 4 6 6 2 2 3 3 3 4 5 1 4 1 5 6 2 4 7 6 6 4 3 1 6 6 4 5 5 6 6 6 6 6
34 37 36 31 17 26 20 9 4 7 2 6 5 6 4 6 4 5 7 6 6 5 6 1 4 2 3 6 3 4 5 1 3 1 5 2 1 7 3 2 8 14 11 8 6
31 39 42 42 29 29 21 6 10 10 11 3 4 5 8 7 5 6 7 7 6 2 3 7 3 9 5 4 7 6 6 5 6 3 3 2 6 5 3 3 6 11 9 7 7
28 37 32 42 37 38 7 13 12 7 9 10 3 4 4 5 6 5 8 7 9 11 6 6 3 2 3 3 2 5 4 4 6 2 2 4 5 2 1 2 5 9 8 9 8
22 12 18 31 41 25 14 16 10 7 7 6 15 9 11 9 8 8 11 7 7 11 4 7 3 0 2 3 4 4 7 3 2 2 4 5 5 5 6 8 6 9 11 9 7
15 3 8 34 39 8 13 13 13 6 5 12 15 10 8 9 9 7 9 3 7 7 6 6 3 2 4 6 8 3 3 3 4 4 5 2 5 6 7 10 14 13 12 11 11
6 4 11 33 8 2 16 15 8 12 4 7 3 5 10 13 10 8 13 6 8 11 11 8 5 4 6 3 3 0 6 6 5 5 2 2 8 4 4 11 14 13 11 8 7
4 3 5 10 8 12 2 4 7 7 9 7 7 5 3 9 6 6 8 2 7 9 11 9 2 2 5 2 2 4 5 3 4 4 8 5 6 3 3 6 7 8 9 7 8
2 3 2 2 1 13 7 4 5 0 3 3 4 3 3 2 2 9 6 2 1 4 0 6 5 7 9 5 6 5 6 6 6 5 5 15 12 3 4 6 6 7 7 7 8
0 2 2 4 6 10 12 7 5 5 1 2 2 6 6 5 2 4 3 4 3 3 3 5 7 5 2 3 3 3 6 14 13 16 11 13 12 7 9 9 8 9 7 8 7
1 2 1 2 13 15 13 10 10 5 6 4 4 9 9 5 6 7 7 2 4 1 3 2 2 4 2 1 3 3 8 6 14 3 3 2 12 7 6 5 5 8 9 8 7
2 2 2 1 2 11 10 17 19 17 10 8 12 3 12 18 4 2 4 4 8 9 7 5 6 3 5 3 4 8 12 12 6 6 9 12 13 4 6 8 9 8 8 8 7
Wind_Direction
299 302 303 303 307 313 318 324 326 332 335 333 332 332 331 328 326 319 287 253 301 183 178 144 68 25 42 63 55 117 62 173 227 155 245 348 19 285 339 310 346 337 97 332 347
284 291 296 298 303 308 313 318 323 327 334 333 330 331 332 330 325 298 216 201 161 155 146 111 72 40 42 28 26 78 104 220 211 209 252 321 124 317 9 356 287 339 334 350 345
279 281 286 291 297 302 307 313 321 327 330 330 327 330 332 333 332 293 178 178 178 163 127 105 95 65 64 36 31 137 184 212 267 238 296 297 303 210 288 302 199 347 313 16 31
274 279 284 291 296 305 308 311 314 323 329 328 326 329 331 337 303 350 160 187 189 165 141 120 55 69 83 231 141 44 239 200 271 140 344 274 310 273 176 202 176 33 53 37 24
278 284 289 294 299 302 308 311 318 322 324 326 326 330 340 20 253 274 219 177 179 179 158 117 121 131 183 194 144 176 249 199 260 274 253 321 249 246 262 90 78 69 53 42 32
274 281 286 291 292 292 297 301 308 314 319 321 323 326 98 253 256 231 230 209 202 180 159 139 180 190 149 194 171 232 300 290 287 252 256 218 264 158 60 107 69 56 51 39 31
270 276 281 284 285 285 289 295 302 310 316 317 318 299 127 240 224 229 205 189 180 182 150 182 150 115 129 154 337 35 334 324 255 276 221 157 247 219 80 80 74 56 53 48 33
269 270 273 277 276 278 282 287 297 306 309 314 323 153 247 245 220 204 176 143 150 134 137 134 153 97 54 120 20 31 51 353 315 123 345 157 259 162 47 79 66 51 37 34 27
263 266 266 269 271 274 282 288 299 304 292 277 301 138 263 214 203 199 187 163 140 124 103 119 90 97 53 99 7 5 234 210 315 40 140 132 268 287 5 72 74 55 39 32 22
261 262 265 261 261 271 283 297 298 297 259 245 182 21 226 222 171 168 168 150 123 107 57 56 56 88 51 114 220 200 213 239 237 307 40 340 268 324 27 71 74 64 46 37 31
255 256 258 254 254 263 285 301 305 280 226 201 202 221 143 140 143 170 157 124 98 79 159 58 128 206 199 200 159 145 180 214 247 224 193 243 249 339 66 71 75 73 67 51 34
252 251 249 245 246 253 264 231 250 157 299 235 234 278 220 174 128 201 166 147 156 179 121 71 223 228 149 160 175 156 168 250 284 284 184 313 281 76 43 57 102 107 79 64 47
248 246 241 234 236 241 225 225 292 291 266 275 196 193 196 167 211 193 159 144 163 149 192 180 208 139 171 164 166 205 196 201 221 346 345 341 286 182 54 97 87 77 99 77 69
245 240 229 215 221 224 226 248 235 227 279 253 217 241 131 144 244 172 179 148 184 189 165 233 253 184 168 197 153 218 204 174 177 122 225 60 279 243 172 149 136 145 141 127 98
242 235 222 204 198 178 208 208 184 161 280 203 161 124 144 171 130 341 169 52 166 169 140 232 179 186 190 191 165 216 118 150 129 127 56 251 292 256 140 201 197 196 189 166 149
243 232 218 209 221 215 190 161 144 111 239 218 131 153 130 169 126 118 130 59 139 128 222 228 235 171 204 104 153 139 79 52 55 92 281 229 184 254 196 195 164 167 193 188 169
256 229 214 202 211 213 165 134 176 205 307 193 186 168 169 163 169 158 164 173 164 139 206 169 212 189 157 88 61 104 111 298 341 24 231 5 188 250 177 149 180 179 186 188 177
254 240 220 212 205 197 168 196 208 211 214 92 127 119 177 159 210 167 137 187 245 159 128 167 201 167 191 192 170 177 164 156 223 210 261 342 233 260 261 301 239 164 166 167 180
252 239 217 211 202 186 188 207 211 182 176 140 93 135 227 214 157 139 192 198 201 187 179 154 259 97 89 126 135 182 179 157 103 39 21 234 282 275 43 45 117 143 153 185 194
232 219 221 208 200 180 200 219 228 202 136 154 194 175 183 192 162 187 177 195 200 184 207 203 117 64 144 111 45 152 158 85 11 178 256 279 273 238 223 202 168 168 191 198 201
206 192 203 198 189 202 216 219 222 226 171 183 208 185 191 172 183 203 200 221 196 169 146 151 125 219 136 207 170 135 174 67 123 149 175 258 253 210 219 177 182 198 200 199 198
193 187 174 170 205 281 223 213 177 193 193 225 219 164 176 171 173 205 200 225 163 146 164 193 140 167 195 139 92 164 194 161 164 216 253 146 257 3 252 179 183 197 200 204 199
154 130 190 172 209 226 323 233 212 165 190 188 198 223 176 179 167 190 189 160 165 159 163 175 198 83 354 32 38 192 206 161 92 79 194 170 259 34 61 159 193 186 209 200 201
139 167 142 239 100 204 198 210 208 349 173 161 166 86 124 209 338 170 179 153 152 169 192 113 144 171 211 187 137 178 195 188 163 190 179 229 253 171 210 211 198 214 215 198 209
75 215 152 186 195 184 169 176 171 198 223 207 194 178 173 162 173 181 161 146 74 118 70 169 192 153 86 101 118 194 188 193 199 222 210 246 228 183 207 207 207 207 192 201 231
168 144 250 299 186 183 164 191 183 179 181 234 235 205 196 192 178 184 147 231 171 95 157 343 109 80 335 90 79 276 235 172 219 187 252 253 256 181 208 203 182 203 195 220 225
117 79 37 320 242 186 202 189 204 199 193 192 213 186 209 221 166 70 120 116 158 156 168 147 129 114 232 112 102 272 222 195 175 188 171 213 238 180 201 210 217 219 207 224 225